Time,TemperatureF,DewpointF,PressureIn,WindDirection,WindDirectionDegrees,WindSpeedMPH,WindSpeedGustMPH,Humidity,HourlyPrecipIn,Conditions,Clouds,dailyrainin,SolarRadiationWatts/m^2,SoftwareType,DateUTC
2013-04-24 00:01:00,43.5,37.4,30.07,NNW,328,0.0,0.0,79,0.00,,,0.00,0,HR-IXPWINDi_r2_v1.2.,2013-04-24 04:01:00,
2013-04-24 00:06:00,43.3,37.5,30.07,NNW,328,0.0,1.0,80,0.00,,,0.00,0,HR-IXPWINDi_r2_v1.2.,2013-04-24 04:06:00,
2013-04-24 00:11:00,43.2,37.4,30.07,NNW,328,0.0,2.0,80,0.00,,,0.00,0,HR-IXPWINDi_r2_v1.2.,2013-04-24 04:11:00,
2013-04-24 00:16:00,43.1,37.3,30.07,NNW,328,0.0,2.0,80,0.00,,,0.00,0,HR-IXPWINDi_r2_v1.2.,2013-04-24 04:16:00,
2013-04-24 00:21:00,42.8,37.3,30.07,NNW,328,0.0,0.0,81,0.00,,,0.00,0,HR-IXPWINDi_r2_v1.2.,2013-04-24 04:21:00,
2013-04-24 00:26:00,42.5,37.0,30.07,NNW,328,0.0,0.0,81,0.00,,,0.00,0,HR-IXPWINDi_r2_v1.2.,2013-04-24 04:26:00,
2013-04-24 00:32:00,42.3,37.2,30.07,NNW,328,1.0,1.0,82,0.00,,,0.00,0,HR-IXPWINDi_r2_v1.2.,2013-04-24 04:32:00,
2013-04-24 00:37:00,42.3,37.2,30.07,NNW,328,1.0,1.0,82,0.00,,,0.00,0,HR-IXPWINDi_r2_v1.2.,2013-04-24 04:37:00,
2013-04-24 00:42:00,42.5,37.4,30.07,NNW,328,0.0,1.0,82,0.00,,,0.00,0,HR-IXPWINDi_r2_v1.2.,2013-04-24 04:42:00,
2013-04-24 00:47:00,42.5,37.4,30.07,NNW,328,0.0,1.0,82,0.00,,,0.00,0,HR-IXPWINDi_r2_v1.2.,2013-04-24 04:47:00,
2013-04-24 00:52:00,42.2,37.1,30.06,NNW,328,1.0,2.0,82,0.00,,,0.00,0,HR-IXPWINDi_r2_v1.2.,2013-04-24 04:52:00,
2013-04-24 00:58:00,41.9,37.1,30.06,NNW,328,1.0,2.0,83,0.00,,,0.00,0,HR-IXPWINDi_r2_v1.2.,2013-04-24 04:58:00,
2013-04-24 01:03:00,42.1,37.3,30.06,NNW,328,1.0,2.0,83,0.00,,,0.00,0,HR-IXPWINDi_r2_v1.2.,2013-04-24 05:03:00,
2013-04-24 01:08:00,42.1,37.3,30.04,NNW,328,1.0,2.0,83,0.00,,,0.00,0,HR-IXPWINDi_r2_v1.2.,2013-04-24 05:08:00,
2013-04-24 01:13:00,42.2,37.4,30.04,NNW,328,0.0,2.0,83,0.00,,,0.00,0,HR-IXPWINDi_r2_v1.2.,2013-04-24 05:13:00,
2013-04-24 01:18:00,42.3,37.5,30.04,NNW,328,2.0,2.0,83,0.00,,,0.00,0,HR-IXPWINDi_r2_v1.2.,2013-04-24 05:18:00,
2013-04-24 01:24:00,42.3,37.5,30.04,NNW,340,3.0,4.0,83,0.00,,,0.00,0,HR-IXPWINDi_r2_v1.2.,2013-04-24 05:24:00,
2013-04-24 01:29:00,42.5,37.4,30.04,NNW,336,0.0,5.0,82,0.00,,,0.00,0,HR-IXPWINDi_r2_v1.2.,2013-04-24 05:29:00,
2013-04-24 01:34:00,42.5,37.4,30.04,NNW,336,0.0,5.0,82,0.00,,,0.00,0,HR-IXPWINDi_r2_v1.2.,2013-04-24 05:34:00,
2013-04-24 01:39:00,42.3,37.2,30.03,NNW,336,1.0,2.0,82,0.00,,,0.00,0,HR-IXPWINDi_r2_v1.2.,2013-04-24 05:39:00,
2013-04-24 01:44:00,42.2,37.4,30.03,NNW,337,0.0,4.0,83,0.00,,,0.00,0,HR-IXPWINDi_r2_v1.2.,2013-04-24 05:44:00,
2013-04-24 01:50:00,42.2,37.4,30.03,NNW,337,1.0,4.0,83,0.00,,,0.00,0,HR-IXPWINDi_r2_v1.2.,2013-04-24 05:50:00,
2013-04-24 01:55:00,42.1,37.3,30.02,NNW,337,1.0,2.0,83,0.00,,,0.00,0,HR-IXPWINDi_r2_v1.2.,2013-04-24 05:55:00,
2013-04-24 02:00:00,41.9,37.4,30.02,NNW,337,2.0,2.0,84,0.00,,,0.00,0,HR-IXPWINDi_r2_v1.2.,2013-04-24 06:00:00,
2013-04-24 02:05:00,41.8,37.3,30.01,NNW,337,0.0,3.0,84,0.00,,,0.00,0,HR-IXPWINDi_r2_v1.2.,2013-04-24 06:05:00,
2013-04-24 02:10:00,41.9,37.4,30.01,NNW,336,0.0,3.0,84,0.00,,,0.00,0,HR-IXPWINDi_r2_v1.2.,2013-04-24 06:10:00,
2013-04-24 02:15:00,41.8,37.3,30.01,NNW,336,0.0,3.0,84,0.00,,,0.00,0,HR-IXPWINDi_r2_v1.2.,2013-04-24 06:15:00,
2013-04-24 02:20:00,41.8,37.3,30.02,NNW,336,0.0,2.0,84,0.00,,,0.00,0,HR-IXPWINDi_r2_v1.2.,2013-04-24 06:20:00,
2013-04-24 02:26:00,41.6,37.1,30.02,NNW,336,0.0,1.0,84,0.00,,,0.00,0,HR-IXPWINDi_r2_v1.2.,2013-04-24 06:26:00,
2013-04-24 02:31:00,41.3,36.8,30.02,NNW,336,0.0,1.0,84,0.00,,,0.00,0,HR-IXPWINDi_r2_v1.2.,2013-04-24 06:31:00,
2013-04-24 02:36:00,41.1,36.9,30.02,NNW,336,0.0,0.0,85,0.00,,,0.00,0,HR-IXPWINDi_r2_v1.2.,2013-04-24 06:36:00,
2013-04-24 02:41:00,41.1,36.9,30.02,NNW,336,0.0,0.0,85,0.00,,,0.00,0,HR-IXPWINDi_r2_v1.2.,2013-04-24 06:41:00,
2013-04-24 02:46:00,40.8,36.9,30.02,NNW,336,0.0,0.0,86,0.00,,,0.00,0,HR-IXPWINDi_r2_v1.2.,2013-04-24 06:46:00,
2013-04-24 02:52:00,40.8,36.9,30.02,NNW,336,0.0,0.0,86,0.00,,,0.00,0,HR-IXPWINDi_r2_v1.2.,2013-04-24 06:52:00,
2013-04-24 02:57:00,41.1,37.5,30.02,NNW,336,1.0,1.0,87,0.00,,,0.00,0,HR-IXPWINDi_r2_v1.2.,2013-04-24 06:57:00,
2013-04-24 03:02:00,41.3,37.7,30.02,NNW,336,1.0,2.0,87,0.00,,,0.00,0,HR-IXPWINDi_r2_v1.2.,2013-04-24 07:02:00,
2013-04-24 03:07:00,41.5,37.9,30.02,NNW,336,1.0,2.0,87,0.00,,,0.00,0,HR-IXPWINDi_r2_v1.2.,2013-04-24 07:07:00,
2013-04-24 03:12:00,41.3,37.4,30.02,NNW,336,1.0,2.0,86,0.00,,,0.00,0,HR-IXPWINDi_r2_v1.2.,2013-04-24 07:12:00,
2013-04-24 03:17:00,41.2,37.3,30.02,NNW,336,0.0,2.0,86,0.00,,,0.00,0,HR-IXPWINDi_r2_v1.2.,2013-04-24 07:17:00,
2013-04-24 03:22:00,41.2,37.6,30.01,NNW,336,0.0,1.0,87,0.00,,,0.00,0,HR-IXPWINDi_r2_v1.2.,2013-04-24 07:22:00,
2013-04-24 03:28:00,41.2,37.6,30.01,NNW,336,0.0,0.0,87,0.00,,,0.00,0,HR-IXPWINDi_r2_v1.2.,2013-04-24 07:28:00,
2013-04-24 03:33:00,41.1,37.5,30.01,NNW,336,0.0,0.0,87,0.00,,,0.00,0,HR-IXPWINDi_r2_v1.2.,2013-04-24 07:33:00,
2013-04-24 03:38:00,40.9,37.3,30.01,NNW,336,0.0,0.0,87,0.00,,,0.00,0,HR-IXPWINDi_r2_v1.2.,2013-04-24 07:38:00,
2013-04-24 03:43:00,40.8,37.2,30.01,NNW,336,0.0,0.0,87,0.00,,,0.00,0,HR-IXPWINDi_r2_v1.2.,2013-04-24 07:43:00,
2013-04-24 03:48:00,40.5,36.9,30.01,NNW,336,0.0,0.0,87,0.00,,,0.00,0,HR-IXPWINDi_r2_v1.2.,2013-04-24 07:48:00,
2013-04-24 03:53:00,40.1,36.5,30.01,NNW,336,0.0,0.0,87,0.00,,,0.00,0,HR-IXPWINDi_r2_v1.2.,2013-04-24 07:53:00,
2013-04-24 03:59:00,39.6,36.0,30.01,NNW,336,0.0,0.0,87,0.00,,,0.00,0,HR-IXPWINDi_r2_v1.2.,2013-04-24 07:59:00,
2013-04-24 04:04:00,39.8,36.8,30.01,NNW,336,0.0,0.0,89,0.00,,,0.00,0,HR-IXPWINDi_r2_v1.2.,2013-04-24 08:04:00,
2013-04-24 04:09:00,40.3,37.3,29.99,NNW,336,0.0,0.0,89,0.00,,,0.00,0,HR-IXPWINDi_r2_v1.2.,2013-04-24 08:09:00,
2013-04-24 04:14:00,40.5,37.2,29.99,NNW,336,0.0,0.0,88,0.00,,,0.00,0,HR-IXPWINDi_r2_v1.2.,2013-04-24 08:14:00,
2013-04-24 04:20:00,40.6,37.6,29.99,NNW,336,0.0,2.0,89,0.00,,,0.00,0,HR-IXPWINDi_r2_v1.2.,2013-04-24 08:20:00,
2013-04-24 04:25:00,40.6,37.3,30.00,NNW,336,1.0,2.0,88,0.00,,,0.00,0,HR-IXPWINDi_r2_v1.2.,2013-04-24 08:25:00,
2013-04-24 04:30:00,40.5,37.2,30.00,NNW,337,0.0,2.0,88,0.00,,,0.00,0,HR-IXPWINDi_r2_v1.2.,2013-04-24 08:30:00,
2013-04-24 04:35:00,40.5,37.5,30.00,NNW,337,0.0,2.0,89,0.00,,,0.00,0,HR-IXPWINDi_r2_v1.2.,2013-04-24 08:35:00,
2013-04-24 04:40:00,40.6,37.6,30.00,NNW,337,0.0,0.0,89,0.00,,,0.00,0,HR-IXPWINDi_r2_v1.2.,2013-04-24 08:40:00,
2013-04-24 04:45:00,40.8,37.8,30.00,NNW,337,0.0,0.0,89,0.00,,,0.00,0,HR-IXPWINDi_r2_v1.2.,2013-04-24 08:45:00,
2013-04-24 04:50:00,40.8,37.8,30.00,NNW,337,0.0,0.0,89,0.00,,,0.00,0,HR-IXPWINDi_r2_v1.2.,2013-04-24 08:50:00,
2013-04-24 04:56:00,40.6,37.6,30.00,NNW,337,0.0,0.0,89,0.00,,,0.00,0,HR-IXPWINDi_r2_v1.2.,2013-04-24 08:56:00,
2013-04-24 05:01:00,40.5,37.5,30.00,NNW,337,0.0,0.0,89,0.00,,,0.00,0,HR-IXPWINDi_r2_v1.2.,2013-04-24 09:01:00,
2013-04-24 05:06:00,40.2,36.9,30.00,NNW,337,0.0,0.0,88,0.00,,,0.00,0,HR-IXPWINDi_r2_v1.2.,2013-04-24 09:06:00,
2013-04-24 05:11:00,39.9,36.6,30.00,NNW,337,0.0,0.0,88,0.00,,,0.00,0,HR-IXPWINDi_r2_v1.2.,2013-04-24 09:11:00,
2013-04-24 05:16:00,39.6,36.3,30.00,NNW,337,0.0,0.0,88,0.00,,,0.00,0,HR-IXPWINDi_r2_v1.2.,2013-04-24 09:16:00,
2013-04-24 05:21:00,39.2,35.9,30.00,NNW,337,0.0,0.0,88,0.00,,,0.00,0,HR-IXPWINDi_r2_v1.2.,2013-04-24 09:21:00,
2013-04-24 05:26:00,39.1,36.1,30.00,NNW,337,0.0,0.0,89,0.00,,,0.00,0,HR-IXPWINDi_r2_v1.2.,2013-04-24 09:26:00,
2013-04-24 05:32:00,38.9,35.9,30.00,NNW,337,0.0,0.0,89,0.00,,,0.00,0,HR-IXPWINDi_r2_v1.2.,2013-04-24 09:32:00,
2013-04-24 05:37:00,38.8,35.8,30.01,NNW,337,0.0,0.0,89,0.00,,,0.00,0,HR-IXPWINDi_r2_v1.2.,2013-04-24 09:37:00,
2013-04-24 05:42:00,38.6,35.6,30.01,NNW,337,0.0,0.0,89,0.00,,,0.00,0,HR-IXPWINDi_r2_v1.2.,2013-04-24 09:42:00,
2013-04-24 05:47:00,38.3,35.3,30.01,NNW,337,0.0,0.0,89,0.00,,,0.00,0,HR-IXPWINDi_r2_v1.2.,2013-04-24 09:47:00,
2013-04-24 05:52:00,38.2,35.2,30.02,NNW,337,0.0,0.0,89,0.00,,,0.00,0,HR-IXPWINDi_r2_v1.2.,2013-04-24 09:52:00,
2013-04-24 05:57:00,37.9,34.9,30.02,NNW,337,0.0,0.0,89,0.00,,,0.00,0,HR-IXPWINDi_r2_v1.2.,2013-04-24 09:57:00,
2013-04-24 06:02:00,37.8,34.8,30.02,NNW,337,0.0,0.0,89,0.00,,,0.00,0,HR-IXPWINDi_r2_v1.2.,2013-04-24 10:02:00,
2013-04-24 06:07:00,37.9,35.2,30.02,NNW,337,0.0,0.0,90,0.00,,,0.00,0,HR-IXPWINDi_r2_v1.2.,2013-04-24 10:07:00,
2013-04-24 06:12:00,38.0,35.3,30.02,NNW,337,0.0,0.0,90,0.00,,,0.00,0,HR-IXPWINDi_r2_v1.2.,2013-04-24 10:12:00,
2013-04-24 06:18:00,38.2,35.5,30.02,NNW,337,0.0,0.0,90,0.00,,,0.00,0,HR-IXPWINDi_r2_v1.2.,2013-04-24 10:18:00,
2013-04-24 06:23:00,38.2,35.5,30.02,NNW,337,0.0,0.0,90,0.00,,,0.00,5,HR-IXPWINDi_r2_v1.2.,2013-04-24 10:23:00,
2013-04-24 06:28:00,38.3,35.6,30.02,NNW,335,0.0,0.0,90,0.00,,,0.00,12,HR-IXPWINDi_r2_v1.2.,2013-04-24 10:28:00,
2013-04-24 06:33:00,38.3,35.6,30.02,NNW,337,0.0,0.0,90,0.00,,,0.00,12,HR-IXPWINDi_r2_v1.2.,2013-04-24 10:33:00,
2013-04-24 06:38:00,38.2,35.5,30.02,NNW,337,0.0,0.0,90,0.00,,,0.00,16,HR-IXPWINDi_r2_v1.2.,2013-04-24 10:38:00,
2013-04-24 06:43:00,38.2,35.5,30.02,NNW,337,0.0,0.0,90,0.00,,,0.00,18,HR-IXPWINDi_r2_v1.2.,2013-04-24 10:43:00,
2013-04-24 06:49:00,38.5,36.1,30.02,NNW,337,0.0,0.0,91,0.00,,,0.00,19,HR-IXPWINDi_r2_v1.2.,2013-04-24 10:49:00,
2013-04-24 06:54:00,38.8,36.1,30.02,NNW,337,0.0,0.0,90,0.00,,,0.00,30,HR-IXPWINDi_r2_v1.2.,2013-04-24 10:54:00,
2013-04-24 06:59:00,39.1,36.7,30.02,NNW,337,0.0,0.0,91,0.00,,,0.00,25,HR-IXPWINDi_r2_v1.2.,2013-04-24 10:59:00,
2013-04-24 07:05:00,39.3,36.8,30.02,NNW,337,0.0,0.0,91,0.00,,,0.00,26,HR-IXPWINDi_r2_v1.2.,2013-04-24 11:05:00,
2013-04-24 07:10:00,39.8,37.3,30.03,NNW,335,0.0,0.0,91,0.00,,,0.00,28,HR-IXPWINDi_r2_v1.2.,2013-04-24 11:10:00,
2013-04-24 07:15:00,40.2,37.7,30.03,NNW,337,0.0,0.0,91,0.00,,,0.00,26,HR-IXPWINDi_r2_v1.2.,2013-04-24 11:15:00,
2013-04-24 07:20:00,40.8,38.3,30.02,NNW,337,0.0,0.0,91,0.00,,,0.00,30,HR-IXPWINDi_r2_v1.2.,2013-04-24 11:20:00,
2013-04-24 07:25:00,41.2,38.7,30.02,NNW,337,0.0,0.0,91,0.00,,,0.00,39,HR-IXPWINDi_r2_v1.2.,2013-04-24 11:25:00,
2013-04-24 07:31:00,41.9,39.4,30.02,NNW,337,0.0,0.0,91,0.00,,,0.00,30,HR-IXPWINDi_r2_v1.2.,2013-04-24 11:31:00,
2013-04-24 07:36:00,42.8,40.3,30.02,NNW,337,1.0,1.0,91,0.00,,,0.00,30,HR-IXPWINDi_r2_v1.2.,2013-04-24 11:36:00,
2013-04-24 07:41:00,43.8,41.0,30.02,NNW,337,2.0,3.0,90,0.00,,,0.00,32,HR-IXPWINDi_r2_v1.2.,2013-04-24 11:41:00,
2013-04-24 07:46:00,44.3,40.9,30.02,NNW,337,1.0,3.0,88,0.00,,,0.00,32,HR-IXPWINDi_r2_v1.2.,2013-04-24 11:46:00,
2013-04-24 07:52:00,44.9,40.6,30.02,NNW,337,2.0,3.0,85,0.00,,,0.00,33,HR-IXPWINDi_r2_v1.2.,2013-04-24 11:52:00,
2013-04-24 07:57:00,45.7,40.8,30.02,NNW,337,0.0,3.0,83,0.00,,,0.00,33,HR-IXPWINDi_r2_v1.2.,2013-04-24 11:57:00,
2013-04-24 08:02:00,46.2,41.0,30.02,NE,49,2.0,3.0,82,0.00,,,0.00,40,HR-IXPWINDi_r2_v1.2.,2013-04-24 12:02:00,
2013-04-24 08:07:00,47.0,41.1,30.01,NE,49,2.0,3.0,80,0.00,,,0.00,35,HR-IXPWINDi_r2_v1.2.,2013-04-24 12:07:00,
2013-04-24 08:12:00,47.7,41.1,30.01,NE,49,1.0,3.0,78,0.00,,,0.00,74,HR-IXPWINDi_r2_v1.2.,2013-04-24 12:12:00,
2013-04-24 08:18:00,48.0,40.4,30.01,NE,49,2.0,3.0,75,0.00,,,0.00,72,HR-IXPWINDi_r2_v1.2.,2013-04-24 12:18:00,
2013-04-24 08:23:00,48.5,40.5,30.00,NE,49,1.0,3.0,74,0.00,,,0.00,51,HR-IXPWINDi_r2_v1.2.,2013-04-24 12:23:00,
2013-04-24 08:28:00,48.8,40.5,30.00,NE,49,1.0,3.0,73,0.00,,,0.00,46,HR-IXPWINDi_r2_v1.2.,2013-04-24 12:28:00,
2013-04-24 08:33:00,49.2,40.9,30.00,NNW,336,1.0,4.0,73,0.00,,,0.00,46,HR-IXPWINDi_r2_v1.2.,2013-04-24 12:33:00,
2013-04-24 08:38:00,49.6,40.5,30.00,NNW,344,1.0,4.0,71,0.00,,,0.00,46,HR-IXPWINDi_r2_v1.2.,2013-04-24 12:38:00,
2013-04-24 08:43:00,49.9,40.8,30.00,NW,313,1.0,5.0,71,0.00,,,0.00,42,HR-IXPWINDi_r2_v1.2.,2013-04-24 12:43:00,
2013-04-24 08:49:00,50.4,41.3,30.00,NE,38,2.0,5.0,71,0.00,,,0.00,42,HR-IXPWINDi_r2_v1.2.,2013-04-24 12:49:00,
2013-04-24 08:54:00,50.8,41.3,30.00,NE,38,0.0,3.0,70,0.00,,,0.00,46,HR-IXPWINDi_r2_v1.2.,2013-04-24 12:54:00,
2013-04-24 08:59:00,51.4,41.5,30.00,NE,41,3.0,5.0,69,0.00,,,0.00,46,HR-IXPWINDi_r2_v1.2.,2013-04-24 12:59:00,
2013-04-24 09:04:00,51.9,41.6,30.00,NE,41,2.0,5.0,68,0.00,,,0.00,46,HR-IXPWINDi_r2_v1.2.,2013-04-24 13:04:00,
2013-04-24 09:10:00,52.2,41.5,29.99,North,1,3.0,5.0,67,0.00,,,0.00,48,HR-IXPWINDi_r2_v1.2.,2013-04-24 13:10:00,
2013-04-24 09:15:00,52.3,41.6,29.99,North,0,0.0,5.0,67,0.00,,,0.00,132,HR-IXPWINDi_r2_v1.2.,2013-04-24 13:15:00,
2013-04-24 09:20:00,52.9,41.8,29.99,SSE,151,2.0,7.0,66,0.00,,,0.00,211,HR-IXPWINDi_r2_v1.2.,2013-04-24 13:20:00,
2013-04-24 09:25:00,53.3,41.8,29.99,ENE,68,2.0,7.0,65,0.00,,,0.00,348,HR-IXPWINDi_r2_v1.2.,2013-04-24 13:25:00,
2013-04-24 09:30:00,53.8,42.3,29.99,SE,140,2.0,7.0,65,0.00,,,0.00,257,HR-IXPWINDi_r2_v1.2.,2013-04-24 13:30:00,
2013-04-24 09:35:00,54.1,42.1,29.99,ESE,120,1.0,7.0,64,0.00,,,0.00,308,HR-IXPWINDi_r2_v1.2.,2013-04-24 13:35:00,
2013-04-24 09:41:00,54.5,42.5,29.99,North,0,4.0,7.0,64,0.00,,,0.00,197,HR-IXPWINDi_r2_v1.2.,2013-04-24 13:41:00,
2013-04-24 09:46:00,55.0,42.2,29.99,NNW,342,0.0,7.0,62,0.00,,,0.00,503,HR-IXPWINDi_r2_v1.2.,2013-04-24 13:46:00,
2013-04-24 09:51:00,55.4,42.6,29.98,ESE,117,0.0,6.0,62,0.00,,,0.00,443,HR-IXPWINDi_r2_v1.2.,2013-04-24 13:51:00,
2013-04-24 09:56:00,55.7,42.4,29.98,North,0,1.0,6.0,61,0.00,,,0.00,151,HR-IXPWINDi_r2_v1.2.,2013-04-24 13:56:00,
2013-04-24 10:01:00,55.7,42.4,29.98,NNE,30,2.0,6.0,61,0.00,,,0.00,338,HR-IXPWINDi_r2_v1.2.,2013-04-24 14:01:00,
2013-04-24 10:06:00,55.6,42.3,29.98,NW,319,2.0,5.0,61,0.00,,,0.00,477,HR-IXPWINDi_r2_v1.2.,2013-04-24 14:06:00,
2013-04-24 10:11:00,55.9,43.0,29.98,East,92,0.0,5.0,62,0.00,,,0.00,435,HR-IXPWINDi_r2_v1.2.,2013-04-24 14:11:00,
2013-04-24 10:17:00,56.5,42.7,29.98,NE,42,3.0,5.0,60,0.00,,,0.00,218,HR-IXPWINDi_r2_v1.2.,2013-04-24 14:17:00,
2013-04-24 10:22:00,56.6,42.4,29.97,NE,55,2.0,5.0,59,0.00,,,0.00,396,HR-IXPWINDi_r2_v1.2.,2013-04-24 14:22:00,
2013-04-24 10:27:00,56.9,42.2,29.97,SSE,162,0.0,5.0,58,0.00,,,0.00,465,HR-IXPWINDi_r2_v1.2.,2013-04-24 14:27:00,
2013-04-24 10:32:00,57.2,42.5,29.97,South,174,1.0,5.0,58,0.00,,,0.00,484,HR-IXPWINDi_r2_v1.2.,2013-04-24 14:32:00,
2013-04-24 10:37:00,57.8,42.6,29.97,SSE,157,1.0,5.0,57,0.00,,,0.00,521,HR-IXPWINDi_r2_v1.2.,2013-04-24 14:37:00,
2013-04-24 10:42:00,58.6,42.4,29.97,SSE,148,1.0,5.0,55,0.00,,,0.00,547,HR-IXPWINDi_r2_v1.2.,2013-04-24 14:42:00,
2013-04-24 10:47:00,58.9,43.2,29.97,SE,126,0.0,5.0,56,0.00,,,0.00,401,HR-IXPWINDi_r2_v1.2.,2013-04-24 14:47:00,
2013-04-24 10:53:00,59.6,42.9,29.97,SSW,193,3.0,5.0,54,0.00,,,0.00,368,HR-IXPWINDi_r2_v1.2.,2013-04-24 14:53:00,
2013-04-24 10:58:00,59.6,42.4,29.97,East,90,0.0,5.0,53,0.00,,,0.00,308,HR-IXPWINDi_r2_v1.2.,2013-04-24 14:58:00,
2013-04-24 11:03:00,59.2,42.5,29.97,SSW,198,2.0,5.0,54,0.00,,,0.00,215,HR-IXPWINDi_r2_v1.2.,2013-04-24 15:03:00,
2013-04-24 11:09:00,59.3,42.1,29.97,SSE,155,1.0,5.0,53,0.00,,,0.00,250,HR-IXPWINDi_r2_v1.2.,2013-04-24 15:09:00,
2013-04-24 11:14:00,59.6,42.4,29.97,South,169,3.0,7.0,53,0.00,,,0.00,315,HR-IXPWINDi_r2_v1.2.,2013-04-24 15:14:00,
2013-04-24 11:19:00,59.0,42.3,29.97,ESE,113,2.0,7.0,54,0.00,,,0.00,192,HR-IXPWINDi_r2_v1.2.,2013-04-24 15:19:00,
2013-04-24 11:25:00,59.0,42.3,29.96,SSE,164,0.0,6.0,54,0.00,,,0.00,234,HR-IXPWINDi_r2_v1.2.,2013-04-24 15:25:00,
2013-04-24 11:30:00,59.2,42.5,29.96,SE,138,3.0,7.0,54,0.00,,,0.00,350,HR-IXPWINDi_r2_v1.2.,2013-04-24 15:30:00,
2013-04-24 11:35:00,59.5,42.3,29.95,NE,54,0.0,7.0,53,0.00,,,0.00,447,HR-IXPWINDi_r2_v1.2.,2013-04-24 15:35:00,
2013-04-24 11:40:00,59.6,42.9,29.95,SSE,157,4.0,6.0,54,0.00,,,0.00,447,HR-IXPWINDi_r2_v1.2.,2013-04-24 15:40:00,
2013-04-24 11:45:00,60.5,44.2,29.95,SSE,162,3.0,6.0,55,0.00,,,0.00,834,HR-IXPWINDi_r2_v1.2.,2013-04-24 15:45:00,
2013-04-24 11:51:00,60.7,42.4,29.94,SSE,147,3.0,8.0,51,0.00,,,0.00,266,HR-IXPWINDi_r2_v1.2.,2013-04-24 15:51:00,
2013-04-24 11:56:00,60.5,42.7,29.94,SSE,158,0.0,8.0,52,0.00,,,0.00,266,HR-IXPWINDi_r2_v1.2.,2013-04-24 15:56:00,
2013-04-24 12:01:00,60.7,43.9,29.94,South,182,0.0,7.0,54,0.00,,,0.00,776,HR-IXPWINDi_r2_v1.2.,2013-04-24 16:01:00,
2013-04-24 12:06:00,61.3,43.5,29.93,South,184,8.0,8.0,52,0.00,,,0.00,778,HR-IXPWINDi_r2_v1.2.,2013-04-24 16:06:00,
2013-04-24 12:11:00,62.1,43.7,29.93,South,169,3.0,11.0,51,0.00,,,0.00,779,HR-IXPWINDi_r2_v1.2.,2013-04-24 16:11:00,
2013-04-24 12:16:00,62.9,42.9,29.93,SSW,200,3.0,11.0,48,0.00,,,0.00,785,HR-IXPWINDi_r2_v1.2.,2013-04-24 16:16:00,
2013-04-24 12:21:00,62.6,43.1,29.92,SE,130,7.0,9.0,49,0.00,,,0.00,792,HR-IXPWINDi_r2_v1.2.,2013-04-24 16:21:00,
2013-04-24 12:26:00,62.3,43.4,29.92,SSE,162,3.0,9.0,50,0.00,,,0.00,790,HR-IXPWINDi_r2_v1.2.,2013-04-24 16:26:00,
2013-04-24 12:32:00,62.7,43.7,29.92,SSE,162,0.0,7.0,50,0.00,,,0.00,794,HR-IXPWINDi_r2_v1.2.,2013-04-24 16:32:00,
2013-04-24 12:37:00,63.5,44.0,29.91,South,171,4.0,6.0,49,0.00,,,0.00,795,HR-IXPWINDi_r2_v1.2.,2013-04-24 16:37:00,
2013-04-24 12:42:00,63.9,43.8,29.91,SSW,210,7.0,10.0,48,0.00,,,0.00,797,HR-IXPWINDi_r2_v1.2.,2013-04-24 16:42:00,
2013-04-24 12:47:00,64.2,44.1,29.91,SE,133,5.0,10.0,48,0.00,,,0.00,799,HR-IXPWINDi_r2_v1.2.,2013-04-24 16:47:00,
2013-04-24 12:53:00,64.3,43.6,29.90,South,186,5.0,10.0,47,0.00,,,0.00,799,HR-IXPWINDi_r2_v1.2.,2013-04-24 16:53:00,
2013-04-24 12:58:00,64.3,44.1,29.90,SW,215,0.0,8.0,48,0.00,,,0.00,801,HR-IXPWINDi_r2_v1.2.,2013-04-24 16:58:00,
2013-04-24 13:03:00,65.0,44.2,29.90,SSE,158,1.0,7.0,47,0.00,,,0.00,801,HR-IXPWINDi_r2_v1.2.,2013-04-24 17:03:00,
2013-04-24 13:08:00,65.5,45.2,29.88,ESE,116,0.0,7.0,48,0.00,,,0.00,802,HR-IXPWINDi_r2_v1.2.,2013-04-24 17:08:00,
2013-04-24 13:13:00,66.1,44.1,29.88,SSE,150,1.0,8.0,45,0.00,,,0.00,801,HR-IXPWINDi_r2_v1.2.,2013-04-24 17:13:00,
2013-04-24 13:18:00,66.1,44.1,29.88,South,169,8.0,8.0,45,0.00,,,0.00,797,HR-IXPWINDi_r2_v1.2.,2013-04-24 17:18:00,
2013-04-24 13:24:00,66.3,44.9,29.88,SSE,160,0.0,8.0,46,0.00,,,0.00,794,HR-IXPWINDi_r2_v1.2.,2013-04-24 17:24:00,
2013-04-24 13:29:00,67.1,45.6,29.88,ENE,59,0.0,8.0,46,0.00,,,0.00,795,HR-IXPWINDi_r2_v1.2.,2013-04-24 17:29:00,
2013-04-24 13:34:00,67.6,45.5,29.88,SE,138,2.0,6.0,45,0.00,,,0.00,794,HR-IXPWINDi_r2_v1.2.,2013-04-24 17:34:00,
2013-04-24 13:39:00,67.6,45.5,29.86,South,179,2.0,8.0,45,0.00,,,0.00,788,HR-IXPWINDi_r2_v1.2.,2013-04-24 17:39:00,
2013-04-24 13:45:00,67.6,45.5,29.86,SSE,155,4.0,10.0,45,0.00,,,0.00,783,HR-IXPWINDi_r2_v1.2.,2013-04-24 17:45:00,
2013-04-24 13:50:00,67.9,45.1,29.86,SE,136,1.0,10.0,44,0.00,,,0.00,778,HR-IXPWINDi_r2_v1.2.,2013-04-24 17:50:00,
2013-04-24 13:55:00,68.4,45.6,29.86,SSE,147,3.0,8.0,44,0.00,,,0.00,769,HR-IXPWINDi_r2_v1.2.,2013-04-24 17:55:00,
2013-04-24 14:00:00,68.3,45.5,29.86,SSE,161,3.0,11.0,44,0.00,,,0.00,764,HR-IXPWINDi_r2_v1.2.,2013-04-24 18:00:00,
2013-04-24 14:06:00,68.8,45.4,29.86,SE,143,4.0,11.0,43,0.00,,,0.00,755,HR-IXPWINDi_r2_v1.2.,2013-04-24 18:06:00,
2013-04-24 14:11:00,68.9,45.4,29.86,SSE,168,4.0,9.0,43,0.00,,,0.00,753,HR-IXPWINDi_r2_v1.2.,2013-04-24 18:11:00,
2013-04-24 14:17:00,69.1,45.6,29.86,SSW,200,3.0,8.0,43,0.00,,,0.00,744,HR-IXPWINDi_r2_v1.2.,2013-04-24 18:17:00,
2013-04-24 14:22:00,68.8,46.0,29.86,SW,226,5.0,8.0,44,0.00,,,0.00,734,HR-IXPWINDi_r2_v1.2.,2013-04-24 18:22:00,
2013-04-24 14:27:00,68.9,46.0,29.86,SSE,158,3.0,8.0,44,0.00,,,0.00,728,HR-IXPWINDi_r2_v1.2.,2013-04-24 18:27:00,
2013-04-24 14:32:00,68.8,46.0,29.86,SSW,208,8.0,8.0,44,0.00,,,0.00,721,HR-IXPWINDi_r2_v1.2.,2013-04-24 18:32:00,
2013-04-24 14:37:00,69.1,45.6,29.85,SSE,167,0.0,9.0,43,0.00,,,0.00,711,HR-IXPWINDi_r2_v1.2.,2013-04-24 18:37:00,
2013-04-24 14:42:00,69.3,45.8,29.85,SSE,157,3.0,10.0,43,0.00,,,0.00,704,HR-IXPWINDi_r2_v1.2.,2013-04-24 18:42:00,
2013-04-24 14:47:00,69.6,46.1,29.85,South,175,3.0,10.0,43,0.00,,,0.00,693,HR-IXPWINDi_r2_v1.2.,2013-04-24 18:47:00,
2013-04-24 14:53:00,69.9,46.3,29.83,SSE,161,4.0,5.0,43,0.00,,,0.00,619,HR-IXPWINDi_r2_v1.2.,2013-04-24 18:53:00,
2013-04-24 14:58:00,69.3,46.4,29.83,SE,137,0.0,9.0,44,0.00,,,0.00,93,HR-IXPWINDi_r2_v1.2.,2013-04-24 18:58:00,
2013-04-24 15:03:00,69.6,46.1,29.83,South,169,3.0,9.0,43,0.00,,,0.00,91,HR-IXPWINDi_r2_v1.2.,2013-04-24 19:03:00,
2013-04-24 15:08:00,69.9,46.3,29.83,SSE,147,5.0,7.0,43,0.00,,,0.00,93,HR-IXPWINDi_r2_v1.2.,2013-04-24 19:08:00,
2013-04-24 15:13:00,69.1,46.8,29.83,SSE,152,2.0,7.0,45,0.00,,,0.00,155,HR-IXPWINDi_r2_v1.2.,2013-04-24 19:13:00,
2013-04-24 15:18:00,69.1,46.2,29.83,South,172,1.0,7.0,44,0.00,,,0.00,626,HR-IXPWINDi_r2_v1.2.,2013-04-24 19:18:00,
2013-04-24 15:23:00,68.9,46.6,29.82,SE,127,3.0,7.0,45,0.00,,,0.00,616,HR-IXPWINDi_r2_v1.2.,2013-04-24 19:23:00,
2013-04-24 15:29:00,68.4,46.2,29.82,SE,143,6.0,8.0,45,0.00,,,0.00,607,HR-IXPWINDi_r2_v1.2.,2013-04-24 19:29:00,
2013-04-24 15:34:00,67.4,46.4,29.82,SSE,152,2.0,8.0,47,0.00,,,0.00,596,HR-IXPWINDi_r2_v1.2.,2013-04-24 19:34:00,
2013-04-24 15:39:00,66.9,46.5,29.81,SE,136,1.0,8.0,48,0.00,,,0.00,581,HR-IXPWINDi_r2_v1.2.,2013-04-24 19:39:00,
2013-04-24 15:44:00,66.6,46.3,29.81,SE,137,5.0,8.0,48,0.00,,,0.00,579,HR-IXPWINDi_r2_v1.2.,2013-04-24 19:44:00,
2013-04-24 15:49:00,66.3,47.1,29.81,South,172,4.0,8.0,50,0.00,,,0.00,554,HR-IXPWINDi_r2_v1.2.,2013-04-24 19:49:00,
2013-04-24 15:54:00,66.9,47.1,29.81,South,172,2.0,8.0,49,0.00,,,0.00,545,HR-IXPWINDi_r2_v1.2.,2013-04-24 19:54:00,
2013-04-24 15:59:00,66.4,47.2,29.81,SSE,165,1.0,11.0,50,0.00,,,0.00,533,HR-IXPWINDi_r2_v1.2.,2013-04-24 19:59:00,
2013-04-24 16:04:00,66.4,47.2,29.81,SSE,157,1.0,11.0,50,0.00,,,0.00,408,HR-IXPWINDi_r2_v1.2.,2013-04-24 20:04:00,
2013-04-24 16:10:00,66.0,47.3,29.81,South,169,1.0,10.0,51,0.00,,,0.00,333,HR-IXPWINDi_r2_v1.2.,2013-04-24 20:10:00,
2013-04-24 16:15:00,66.1,46.9,29.81,South,174,1.0,10.0,50,0.00,,,0.00,318,HR-IXPWINDi_r2_v1.2.,2013-04-24 20:15:00,
2013-04-24 16:20:00,66.4,47.2,29.81,SSE,148,5.0,8.0,50,0.00,,,0.00,438,HR-IXPWINDi_r2_v1.2.,2013-04-24 20:20:00,
2013-04-24 16:26:00,66.3,47.6,29.81,SE,130,3.0,8.0,51,0.00,,,0.00,109,HR-IXPWINDi_r2_v1.2.,2013-04-24 20:26:00,
2013-04-24 16:31:00,66.1,47.9,29.81,SE,141,1.0,7.0,52,0.00,,,0.00,121,HR-IXPWINDi_r2_v1.2.,2013-04-24 20:31:00,
2013-04-24 16:36:00,65.5,47.4,29.81,SSE,165,5.0,10.0,52,0.00,,,0.00,100,HR-IXPWINDi_r2_v1.2.,2013-04-24 20:36:00,
2013-04-24 16:41:00,65.0,47.4,29.81,SSW,212,3.0,10.0,53,0.00,,,0.00,97,HR-IXPWINDi_r2_v1.2.,2013-04-24 20:41:00,
2013-04-24 16:46:00,64.3,47.7,29.81,SSE,162,4.0,8.0,55,0.00,,,0.00,157,HR-IXPWINDi_r2_v1.2.,2013-04-24 20:46:00,
2013-04-24 16:52:00,64.3,47.3,29.81,SW,230,8.0,8.0,54,0.00,,,0.00,118,HR-IXPWINDi_r2_v1.2.,2013-04-24 20:52:00,
2013-04-24 16:57:00,64.5,47.9,29.81,SSE,168,1.0,8.0,55,0.00,,,0.00,113,HR-IXPWINDi_r2_v1.2.,2013-04-24 20:57:00,
2013-04-24 17:02:00,64.2,47.6,29.81,SE,138,5.0,8.0,55,0.00,,,0.00,86,HR-IXPWINDi_r2_v1.2.,2013-04-24 21:02:00,
2013-04-24 17:07:00,63.5,47.9,29.82,SE,134,2.0,8.0,57,0.00,,,0.00,67,HR-IXPWINDi_r2_v1.2.,2013-04-24 21:07:00,
2013-04-24 17:12:00,63.2,48.1,29.82,SE,140,6.0,7.0,58,0.00,,,0.00,127,HR-IXPWINDi_r2_v1.2.,2013-04-24 21:12:00,
2013-04-24 17:18:00,62.9,47.8,29.82,South,174,3.0,8.0,58,0.00,,,0.00,132,HR-IXPWINDi_r2_v1.2.,2013-04-24 21:18:00,
2013-04-24 17:23:00,62.9,47.8,29.82,SSE,152,2.0,8.0,58,0.00,,,0.00,97,HR-IXPWINDi_r2_v1.2.,2013-04-24 21:23:00,
2013-04-24 17:28:00,62.6,48.0,29.82,SE,145,3.0,7.0,59,0.00,,,0.00,81,HR-IXPWINDi_r2_v1.2.,2013-04-24 21:28:00,
2013-04-24 17:33:00,62.4,47.8,29.82,SE,137,5.0,8.0,59,0.00,,,0.00,76,HR-IXPWINDi_r2_v1.2.,2013-04-24 21:33:00,
2013-04-24 17:39:00,62.3,48.2,29.82,SE,140,6.0,8.0,60,0.00,,,0.00,84,HR-IXPWINDi_r2_v1.2.,2013-04-24 21:39:00,
2013-04-24 17:44:00,61.8,48.2,29.82,SSE,150,6.0,9.0,61,0.00,,,0.00,93,HR-IXPWINDi_r2_v1.2.,2013-04-24 21:44:00,
2013-04-24 17:49:00,61.3,48.1,29.82,SSE,164,1.0,9.0,62,0.00,,,0.00,63,HR-IXPWINDi_r2_v1.2.,2013-04-24 21:49:00,
2013-04-24 17:54:00,61.0,47.8,29.81,South,186,1.0,9.0,62,0.00,,,0.00,51,HR-IXPWINDi_r2_v1.2.,2013-04-24 21:54:00,
2013-04-24 17:59:00,60.7,48.0,29.81,South,174,1.0,9.0,63,0.00,,,0.00,55,HR-IXPWINDi_r2_v1.2.,2013-04-24 21:59:00,
2013-04-24 18:04:00,60.4,47.7,29.81,SSW,196,0.0,13.0,63,0.00,,,0.00,63,HR-IXPWINDi_r2_v1.2.,2013-04-24 22:04:00,
2013-04-24 18:10:00,60.1,47.8,29.80,SSE,151,3.0,13.0,64,0.00,,,0.00,70,HR-IXPWINDi_r2_v1.2.,2013-04-24 22:10:00,
2013-04-24 18:15:00,59.5,47.7,29.80,SSE,158,1.0,7.0,65,0.00,,,0.00,72,HR-IXPWINDi_r2_v1.2.,2013-04-24 22:15:00,
2013-04-24 18:20:00,58.9,47.9,29.80,SSE,147,6.0,7.0,67,0.00,,,0.00,70,HR-IXPWINDi_r2_v1.2.,2013-04-24 22:20:00,
2013-04-24 18:25:00,58.6,48.0,29.80,SSE,155,3.0,7.0,68,0.00,,,0.00,65,HR-IXPWINDi_r2_v1.2.,2013-04-24 22:25:00,
2013-04-24 18:30:00,57.5,47.4,29.80,SE,138,6.0,9.0,69,0.00,,,0.00,58,HR-IXPWINDi_r2_v1.2.,2013-04-24 22:30:00,
2013-04-24 18:35:00,57.0,47.6,29.79,SE,138,3.0,9.0,71,0.00,,,0.00,48,HR-IXPWINDi_r2_v1.2.,2013-04-24 22:35:00,
2013-04-24 18:40:00,56.7,47.7,29.79,SE,145,6.0,7.0,72,0.00,,,0.00,39,HR-IXPWINDi_r2_v1.2.,2013-04-24 22:40:00,
2013-04-24 18:46:00,55.9,47.3,29.79,SE,128,6.0,11.0,73,0.00,,,0.00,35,HR-IXPWINDi_r2_v1.2.,2013-04-24 22:46:00,
2013-04-24 18:51:00,55.6,47.4,29.79,SSE,161,5.0,11.0,74,0.00,,,0.00,28,HR-IXPWINDi_r2_v1.2.,2013-04-24 22:51:00,
2013-04-24 18:56:00,55.1,47.3,29.79,SSE,161,3.0,10.0,75,0.00,,,0.00,25,HR-IXPWINDi_r2_v1.2.,2013-04-24 22:56:00,
2013-04-24 19:01:00,54.8,47.0,29.79,SSE,155,1.0,8.0,75,0.00,,,0.00,26,HR-IXPWINDi_r2_v1.2.,2013-04-24 23:01:00,
2013-04-24 19:06:00,54.5,47.0,29.79,SE,134,2.0,10.0,76,0.00,,,0.00,23,HR-IXPWINDi_r2_v1.2.,2013-04-24 23:06:00,
2013-04-24 19:12:00,54.4,47.3,29.79,South,171,2.0,10.0,77,0.00,,,0.00,18,HR-IXPWINDi_r2_v1.2.,2013-04-24 23:12:00,
2013-04-24 19:17:00,54.4,47.3,29.79,South,184,1.0,6.0,77,0.00,,,0.00,11,HR-IXPWINDi_r2_v1.2.,2013-04-24 23:17:00,
2013-04-24 19:22:00,53.9,46.8,29.80,SSE,162,2.0,7.0,77,0.00,,,0.00,7,HR-IXPWINDi_r2_v1.2.,2013-04-24 23:22:00,
2013-04-24 19:27:00,53.6,46.9,29.80,SE,143,5.0,7.0,78,0.00,,,0.00,5,HR-IXPWINDi_r2_v1.2.,2013-04-24 23:27:00,
2013-04-24 19:33:00,53.3,46.9,29.80,SSE,168,0.0,6.0,79,0.00,,,0.00,0,HR-IXPWINDi_r2_v1.2.,2013-04-24 23:33:00,
2013-04-24 19:38:00,53.1,46.7,29.80,SSW,208,1.0,7.0,79,0.00,,,0.00,0,HR-IXPWINDi_r2_v1.2.,2013-04-24 23:38:00,
2013-04-24 19:43:00,52.8,46.7,29.80,SSE,168,1.0,7.0,80,0.00,,,0.00,0,HR-IXPWINDi_r2_v1.2.,2013-04-24 23:43:00,
2013-04-24 19:48:00,52.6,46.9,29.80,South,185,0.0,7.0,81,0.00,,,0.00,0,HR-IXPWINDi_r2_v1.2.,2013-04-24 23:48:00,
2013-04-24 19:53:00,52.5,47.1,29.81,SSE,164,2.0,5.0,82,0.00,,,0.00,0,HR-IXPWINDi_r2_v1.2.,2013-04-24 23:53:00,
2013-04-24 19:58:00,52.3,46.9,29.81,SSE,160,3.0,8.0,82,0.00,,,0.00,0,HR-IXPWINDi_r2_v1.2.,2013-04-24 23:58:00,
2013-04-24 20:03:00,52.3,47.2,29.81,SSE,168,1.0,8.0,83,0.00,,,0.00,0,HR-IXPWINDi_r2_v1.2.,2013-04-25 00:03:00,
2013-04-24 20:09:00,52.3,47.2,29.82,SSE,162,2.0,6.0,83,0.00,,,0.00,0,HR-IXPWINDi_r2_v1.2.,2013-04-25 00:09:00,
2013-04-24 20:14:00,52.2,47.5,29.82,SSE,150,2.0,6.0,84,0.00,,,0.00,0,HR-IXPWINDi_r2_v1.2.,2013-04-25 00:14:00,
2013-04-24 20:19:00,52.2,47.5,29.82,SSE,157,3.0,6.0,84,0.00,,,0.00,0,HR-IXPWINDi_r2_v1.2.,2013-04-25 00:19:00,
2013-04-24 20:24:00,52.0,47.3,29.82,SSE,162,0.0,6.0,84,0.00,,,0.00,0,HR-IXPWINDi_r2_v1.2.,2013-04-25 00:24:00,
2013-04-24 20:29:00,52.2,47.5,29.82,SE,141,2.0,6.0,84,0.00,,,0.00,0,HR-IXPWINDi_r2_v1.2.,2013-04-25 00:29:00,
2013-04-24 20:34:00,52.0,47.6,29.82,SE,141,1.0,6.0,85,0.00,,,0.00,0,HR-IXPWINDi_r2_v1.2.,2013-04-25 00:34:00,
2013-04-24 20:39:00,52.2,47.8,29.83,South,171,1.0,5.0,85,0.00,,,0.00,0,HR-IXPWINDi_r2_v1.2.,2013-04-25 00:39:00,
2013-04-24 20:44:00,52.2,47.8,29.83,SSE,158,1.0,5.0,85,0.00,,,0.00,0,HR-IXPWINDi_r2_v1.2.,2013-04-25 00:44:00,
2013-04-24 20:50:00,52.3,47.9,29.83,SSE,157,0.0,5.0,85,0.00,,,0.00,0,HR-IXPWINDi_r2_v1.2.,2013-04-25 00:50:00,
2013-04-24 20:55:00,52.5,48.1,29.83,SE,144,2.0,9.0,85,0.00,,,0.00,0,HR-IXPWINDi_r2_v1.2.,2013-04-25 00:55:00,
2013-04-24 21:00:00,52.5,48.1,29.83,SE,144,1.0,9.0,85,0.00,,,0.00,0,HR-IXPWINDi_r2_v1.2.,2013-04-25 01:00:00,
2013-04-24 21:05:00,52.5,48.1,29.83,SSE,148,1.0,5.0,85,0.00,,,0.00,0,HR-IXPWINDi_r2_v1.2.,2013-04-25 01:05:00,
2013-04-24 21:11:00,52.5,48.1,29.83,SSE,164,2.0,6.0,85,0.00,,,0.00,0,HR-IXPWINDi_r2_v1.2.,2013-04-25 01:11:00,
2013-04-24 21:16:00,52.5,48.1,29.83,SSE,157,2.0,6.0,85,0.00,,,0.00,0,HR-IXPWINDi_r2_v1.2.,2013-04-25 01:16:00,
2013-04-24 21:21:00,52.3,47.9,29.83,SSE,147,2.0,6.0,85,0.00,,,0.00,0,HR-IXPWINDi_r2_v1.2.,2013-04-25 01:21:00,
2013-04-24 21:26:00,52.3,48.2,29.83,South,171,2.0,6.0,86,0.00,,,0.00,0,HR-IXPWINDi_r2_v1.2.,2013-04-25 01:26:00,
2013-04-24 21:31:00,52.9,49.1,29.83,South,172,1.0,4.0,87,0.00,,,0.00,0,HR-IXPWINDi_r2_v1.2.,2013-04-25 01:31:00,
2013-04-24 21:37:00,52.5,48.4,29.83,SSE,158,3.0,6.0,86,0.00,,,0.00,0,HR-IXPWINDi_r2_v1.2.,2013-04-25 01:37:00,
2013-04-24 21:42:00,52.6,48.5,29.83,South,181,2.0,6.0,86,0.00,,,0.00,0,HR-IXPWINDi_r2_v1.2.,2013-04-25 01:42:00,
2013-04-24 21:47:00,52.6,48.2,29.83,South,172,0.0,5.0,85,0.00,,,0.00,0,HR-IXPWINDi_r2_v1.2.,2013-04-25 01:47:00,
2013-04-24 21:52:00,52.5,48.4,29.83,South,169,0.0,5.0,86,0.00,,,0.00,0,HR-IXPWINDi_r2_v1.2.,2013-04-25 01:52:00,
2013-04-24 21:57:00,52.5,48.4,29.83,South,169,1.0,5.0,86,0.00,,,0.00,0,HR-IXPWINDi_r2_v1.2.,2013-04-25 01:57:00,
2013-04-24 22:02:00,52.5,48.4,29.83,South,179,2.0,6.0,86,0.00,,,0.00,0,HR-IXPWINDi_r2_v1.2.,2013-04-25 02:02:00,
2013-04-24 22:08:00,52.5,48.4,29.83,SSE,148,2.0,6.0,86,0.00,,,0.00,0,HR-IXPWINDi_r2_v1.2.,2013-04-25 02:08:00,
2013-04-24 22:13:00,52.6,48.5,29.83,SSE,151,0.0,6.0,86,0.00,,,0.00,0,HR-IXPWINDi_r2_v1.2.,2013-04-25 02:13:00,
2013-04-24 22:19:00,52.5,48.4,29.83,SSE,151,2.0,3.0,86,0.00,,,0.00,0,HR-IXPWINDi_r2_v1.2.,2013-04-25 02:19:00,
2013-04-24 22:24:00,52.5,48.4,29.83,SSE,151,1.0,3.0,86,0.00,,,0.00,0,HR-IXPWINDi_r2_v1.2.,2013-04-25 02:24:00,
2013-04-24 22:29:00,52.5,48.4,29.83,SSE,151,0.0,3.0,86,0.00,,,0.00,0,HR-IXPWINDi_r2_v1.2.,2013-04-25 02:29:00,
2013-04-24 22:35:00,52.5,48.4,29.83,SSE,151,0.0,3.0,86,0.00,,,0.00,0,HR-IXPWINDi_r2_v1.2.,2013-04-25 02:35:00,
2013-04-24 22:40:00,52.9,49.1,29.83,SSE,151,0.0,3.0,87,0.00,,,0.00,0,HR-IXPWINDi_r2_v1.2.,2013-04-25 02:40:00,
2013-04-24 22:45:00,52.9,48.8,29.83,SSE,151,0.0,3.0,86,0.00,,,0.00,0,HR-IXPWINDi_r2_v1.2.,2013-04-25 02:45:00,
2013-04-24 22:50:00,53.1,49.0,29.83,SSE,154,1.0,3.0,86,0.00,,,0.00,0,HR-IXPWINDi_r2_v1.2.,2013-04-25 02:50:00,
2013-04-24 22:56:00,53.2,49.1,29.83,SSE,167,0.0,4.0,86,0.00,,,0.00,0,HR-IXPWINDi_r2_v1.2.,2013-04-25 02:56:00,
2013-04-24 23:01:00,53.1,49.0,29.83,SSE,167,1.0,4.0,86,0.00,,,0.00,0,HR-IXPWINDi_r2_v1.2.,2013-04-25 03:01:00,
2013-04-24 23:06:00,53.3,49.2,29.82,SSE,165,1.0,3.0,86,0.00,,,0.00,0,HR-IXPWINDi_r2_v1.2.,2013-04-25 03:06:00,
2013-04-24 23:11:00,53.3,49.2,29.82,SSE,167,1.0,3.0,86,0.00,,,0.00,0,HR-IXPWINDi_r2_v1.2.,2013-04-25 03:11:00,
2013-04-24 23:16:00,53.3,49.2,29.82,SSE,165,1.0,5.0,86,0.00,,,0.00,0,HR-IXPWINDi_r2_v1.2.,2013-04-25 03:16:00,
2013-04-24 23:21:00,53.3,49.2,29.82,SSE,164,1.0,5.0,86,0.00,,,0.00,0,HR-IXPWINDi_r2_v1.2.,2013-04-25 03:21:00,
2013-04-24 23:26:00,53.3,49.2,29.82,SSE,154,1.0,3.0,86,0.00,,,0.00,0,HR-IXPWINDi_r2_v1.2.,2013-04-25 03:26:00,
2013-04-24 23:32:00,53.2,49.1,29.82,SSE,158,2.0,3.0,86,0.00,,,0.00,0,HR-IXPWINDi_r2_v1.2.,2013-04-25 03:32:00,
2013-04-24 23:37:00,53.2,49.1,29.82,SSE,160,1.0,3.0,86,0.00,,,0.00,0,HR-IXPWINDi_r2_v1.2.,2013-04-25 03:37:00,
2013-04-24 23:42:00,53.2,49.1,29.82,SSE,160,2.0,3.0,86,0.00,,,0.00,0,HR-IXPWINDi_r2_v1.2.,2013-04-25 03:42:00,
2013-04-24 23:47:00,53.1,49.0,29.82,SSE,160,2.0,3.0,86,0.00,,,0.00,0,HR-IXPWINDi_r2_v1.2.,2013-04-25 03:47:00,
2013-04-24 23:52:00,53.2,49.1,29.81,SSE,164,2.0,5.0,86,0.00,,,0.00,0,HR-IXPWINDi_r2_v1.2.,2013-04-25 03:52:00,
2013-04-24 23:57:00,53.2,49.1,29.81,SSE,152,3.0,5.0,86,0.00,,,0.00,0,HR-IXPWINDi_r2_v1.2.,2013-04-25 03:57:00,